AirNav   Everest Fuels
 
 692 users online  

O13 Haddock Field Airport
Erick, Oklahoma, USA

GOING TO ERICK?


FAA INFORMATION EFFECTIVE 16 JULY 2020

Location

FAA Identifier: O13
Lat/Long: 35-12-02.7000N 099-52-51.8000W
35-12.045000N 099-52.863333W
35.2007500,-99.8810556
(estimated)
Elevation: 2097 ft. / 639 m (estimated)
Variation: 08E (1985)
From city: 1 mile SW of ERICK, OK
Time zone: UTC -5 (UTC -6 during Standard Time)
Zip code: 73645

Airport Operations

Airport use: Open to the public
Activation date: 03/1946
Control tower: no
ARTCC: FORT WORTH CENTER
FSS: MC ALESTER FLIGHT SERVICE STATION
NOTAMs facility: MLC (NOTAM-D service available)
Attendance: UNATNDD
Wind indicator: yes
Segmented circle: no

Airport Communications

CTAF: 122.9

Nearby radio navigation aids

VOR radial/distance  VOR name  Freq  Var
BFVr261/33.2BURNS FLAT VORTAC110.0005E

Airport Services

Airframe service: NONE
Powerplant service: NONE
Bottled oxygen: NONE
Bulk oxygen: NONE

Runway Information

Runway 17/35

Dimensions: 2650 x 35 ft. / 808 x 11 m
Surface: asphalt, in fair condition
Weight bearing capacity: 
Single wheel: 4.0
RUNWAY 17  RUNWAY 35
Latitude: 35-12.262603N35-11.826092N
Longitude: 099-52.875362W099-52.851893W
Elevation: 2092.0 ft.2097.0 ft.
Traffic pattern: leftleft
Runway heading: 169 magnetic, 177 true349 magnetic, 357 true

Airport Ownership and Management from official FAA records

Ownership: Publicly-owned
Owner: CITY OF ERICK
CITY HALL, P. O. BOX 25
ERICK, OK 73645
Phone 580-526-3924
Manager: TODD SUTTON
17212 E 1250 RD, P. O. BOX 25
ERICK, OK 73645
Phone (580) 243-9190
AIRPORT BOARD CHAIRMAN.

Airport Operational Statistics

Aircraft based on the field: 6
Single engine airplanes: 6
    
Aircraft operations: avg 33/month *
62% local general aviation
25% transient general aviation
12% military
* for 12-month period ending 05 October 2017

Additional Remarks

A58-35 5 FT BRUSH AND HILL 168 FT FROM RUNWAY END.
A58-17 4 FT FENCE AT 65 FT; 15 FT ROAD AT 70 FT; 4 FT TERRAIN RISE AT 106 FT, 8 FT FENCE AT 120 FT.
MILITARY HELICOPTER TRAFFIC ON & INVOF ARPT.
FOR CD CTC FORT WORTH ARTCC AT 817-858-7584.

Instrument Procedures

There are no published instrument procedures at O13.

Some nearby airports with instrument procedures:

T59 - Wheeler Municipal Airport (22 nm NW)
2K4 - Scott Field Airport (25 nm SE)
KELK - Elk City Regional Business Airport (28 nm NE)
O35 - Hollis Municipal Airport (30 nm S)
KCSM - Clinton-Sherman Airport (34 nm E)
 
Loc | Ops | Rwys | IFR | FBO | Links
Com | Nav | Svcs | Stats | Notes

AirBoss

 
Area around O13 (Haddock Field Airport)
 
Road maps at: MapQuest Bing Google
 
Aerial photo
No photo
 
Sectional chart

 
Airport distance calculator
Flying to Haddock Field Airport? Find the distance to fly.

From to O13

Sunrise and sunset
Times for 03-Aug-2020
 Local
(UTC-5)
 Zulu
(UTC)
Morning civil twilight06:2411:24
Sunrise06:5211:52
Sunset20:3901:39
Evening civil twilight21:0702:07

Current date and time
Zulu (UTC)  04-Aug-2020 04:14:53
Local (UTC-5)  03-Aug-2020 23:14:53
 
METAR
KELK 
28nm NE 
040355Z AUTO 09009KT 10SM CLR 23/15 A3010 RMK AO2 T02290145
KCSM 
35nm E 
040353Z 08008KT 10SM CLR 22/14 A3011 RMK AO2 SLP173 T02220144
KAXS 
40nm SE 
040355Z AUTO 08009KT 7SM CLR 25/17 A3008 RMK AO2 T02500165
KHBR 
43nm E 
040353Z AUTO 09009KT 10SM CLR 23/17 A3008 RMK AO2 SLP170 T02280172
KLTS 
44nm SE 
040356Z AUTO 07008KT 10SM CLR 24/16 A3006 RMK AO2 SLP165 T02420157 $
KHHF 
49nm NW 
040355Z AUTO 11009KT 10SM CLR 22/16 A3009 RMK AO2 T02200155
TAF
KCSM 
35nm E 
031720Z 0318/0418 04008KT P6SM FEW050 FM040600 12009KT P6SM BKN250 PROB30 0406/0412 4SM TSRA BKN080CB
NOTAMs
Click for the latest NOTAMs
NOTAMs are issued by the DoD/FAA and will open in a separate window not controlled by AirNav.

 

 
 

Would you like to see your business listed on this page?

 If your business provides an interesting product or service to pilots, flight crews, aircraft, or users of the Haddock Field Airport, you should consider listing it here.  To start the listing process, click on the button below
 
Add a business
 

Other Pages about Haddock Field Airport

Update a link
 
Copyright © AirNav, LLC. All rights reserved. Privacy Policy  Contact